カタログに戻る

QIANFAN-123

運用中通信PO
NORAD 68650·PAYLOAD·🇨🇳 China

打ち上げ Apr 7, 2026 から Wenchang Space Launch Site

Loading…

次のパス (今後24時間)

TLE

最新Source: Space-Track

元期: Sep 14, 2026, 13:19 UTC

1 68650U 26075Q   26257.55491377 -.01764470  00000-0 -31074+1 0  9994
2 68650  88.9866 311.8593 0008189 128.6997 231.4885 13.46994112 21857

AllMySatでQIANFAN-123をリアルタイム追跡

Download on the App Store